Location: *
(49.4300°N, 4.7492°E)
Time: 00:58:29
(UTC+00:00)

Daily predictions for brighter satellites

Satellite Brightness Start Highest point End
(mag) Time Altitude Azimuth Time Altitude Azimuth Time Altitude Azimuth
ATLAS 3B R/B 4.3 01:27:54 27° NNE 01:27:54 27° NNE 01:33:16 10° ENE
SL-16 R/B 4.5 01:35:09 20° NE 01:35:09 20° NE 01:36:50 10° NE
CENTAUR R/B 4.3 01:38:06 30° N 01:40:10 35° NNE 01:47:40 10° E
Cosmos 2322 Rocket 4.0 02:05:38 27° NNE 02:05:38 27° NNE 02:08:04 10° NNE
Cosmos 2360 Rocket 3.7 02:15:12 33° NE 02:15:12 33° NE 02:18:28 10° NE
Cosmos 1980 Rocket 4.2 02:21:50 19° N 02:21:50 19° N 02:23:54 10° NNE
NOSS 3-2 (A) 4.3 02:18:11 53° N 02:19:32 60° NE 02:27:38 10° ESE
Resurs 1-4 Rocket 4.4 02:16:28 10° N 02:17:39 17° N 02:17:39 17° N
USA 267 3.6 02:24:23 10° ENE 02:30:09 56° ESE 02:30:09 56° ESE
COSMOS 2455 3.6 02:36:11 49° E 02:36:11 49° E 02:41:18 10° NE
NOSS 3-2 (C) 4.4 02:39:11 32° NNW 02:42:45 59° NE 02:50:51 10° ESE
Cosmos 1745 Rocket 4.3 02:47:07 61° NNE 02:47:07 61° NNE 02:52:13 10° N
Cosmos 2278 Rocket 3.4 02:44:54 10° NNW 02:50:12 39° NE 02:55:30 10° ESE
ADEOS II 3.5 02:46:17 10° N 02:49:01 31° N 02:49:01 31° N
ARIANE 5 R/B 4.1 02:47:07 10° N 02:49:21 27° N 02:49:21 27° N
CZ-2D R/B 4.3 02:51:58 10° N 02:53:01 15° NNW 02:53:01 15° NNW
Cosmos 2333 Rocket 3.2 02:55:19 38° SE 02:56:16 41° ESE 03:01:36 10° NE
NOSS 3-1 (A) 4.5 02:59:00 35° NNW 02:59:00 35° NNW 03:05:12 10° NE
Cosmos 2181 Rocket 4.5 02:55:51 10° N 03:02:10 60° ENE 03:08:22 10° SSE
Cosmos 921 Rocket 4.3 03:05:54 37° ENE 03:05:54 37° ENE 03:09:27 10° SE
USA 234 3.1 02:59:44 10° SE 03:06:17 79° SW 03:06:32 77° WSW
Cosmos 2333 4.2 03:10:00 72° SE 03:10:06 73° ESE 03:15:45 10° NNE
Cosmos 1386 Rocket 4.5 03:13:23 68° NW 03:13:23 68° NW 03:19:26 10° N
SL-16 R/B 3.5 03:17:01 28° NNW 03:17:01 28° NNW 03:20:46 10° NNE
Cosmos 2322 3.6 03:19:21 84° WNW 03:19:21 84° WNW 03:25:07 10° NNE
ATLAS 3B R/B 3.1 03:15:12 21° NNW 03:19:44 58° NE 03:26:27 10° ESE
IDEFIX/ARIANE 42P 2.9 03:19:34 10° NNE 03:24:48 62° E 03:27:07 32° S
Cosmos 2219 Rocket 2.4 03:23:39 50° S 03:24:58 66° ESE 03:30:32 10° NNE
CENTAUR R/B 3.2 03:25:19 15° NW 03:32:08 75° NE 03:40:47 10° SE
ATLAS 5 CENTAUR R/B 4.2 03:29:35 21° NNW 03:32:25 35° NNE 03:45:15 10° E
Cosmos 1758 4.5 03:28:59 10° N 03:32:49 43° ENE 03:36:40 10° SSE
Cosmos 2237 Rocket 3.8 03:28:39 10° SSE 03:33:40 33° ESE 03:38:43 10° NE
Cosmos 2251 Rocket 3.5 03:39:57 65° W 03:40:11 66° WNW 03:45:35 10° NNE
Lacrosse 4 Rocket 3.9 03:42:02 11° NNW 03:42:02 11° NNW 03:42:23 10° N
NOSS 2-2 (C) 3.4 03:41:45 69° E 03:41:45 69° E 03:45:46 10° NE
Gblst 52 Del rocket 4.2 03:40:51 54° WNW 03:42:02 72° N 03:47:47 10° E
ATLAS 2AS CENTAUR R/B 3.5 03:36:56 19° SSW 03:42:52 61° ESE 03:50:45 10° NE
BREEZE-M R/B 3.6 03:43:11 57° SW 03:44:18 79° SSE 03:53:47 10° ENE
USA 238 DEB 3.9 03:42:52 41° WNW 03:45:01 54° WSW 03:52:10 10° SSE
USA 238 3.9 03:42:55 40° WNW 03:45:07 54° WSW 03:52:16 10° SSE
COSMOS 2428 2.6 03:45:13 45° SSW 03:47:05 87° WNW 03:52:48 10° NNE
Cosmos 2322 Rocket 3.5 03:47:28 23° NW 03:47:28 23° NW 03:51:39 10° N
Cosmos 2360 Rocket 3.0 03:56:59 33° NW 03:57:15 33° NW 04:02:20 10° NNE
Cosmos 1470 2.8 03:53:18 10° N 03:57:15 76° E 04:01:09 10° SSE
Cosmos 1707 4.0 03:56:26 10° SSE 04:00:08 42° E 04:03:52 10° NNE
Cosmos 1842 3.3 04:02:09 57° NW 04:02:09 57° NW 04:05:41 10° N
Cosmos 1709 Rocket 4.2 04:02:05 34° SW 04:04:26 49° WNW 04:10:36 10° N
Cosmos 1980 Rocket 4.4 04:04:22 10° NNW 04:05:04 10° NNW 04:05:46 10° NNW
Cosmos 2184 Rocket 4.1 04:01:46 10° S 04:07:58 79° E 04:14:17 10° NNE
H-2A R/B 2.3 04:06:17 10° NNE 04:10:25 82° WNW 04:13:27 19° SSW
NOSS 3-2 (A) 4.2 04:05:40 21° WNW 04:10:30 47° WSW 04:18:23 10° S
ERBS 2.8 04:11:12 45° S 04:11:53 55° SE 04:15:12 10° ENE
Cosmos 407 Rocket 3.8 04:08:42 10° S 04:13:48 66° ESE 04:18:53 10° NNE
USA 267 3.4 04:07:28 10° ENE 04:13:57 64° NNW 04:17:29 28° W
Nadezhda 3 Rocket 4.4 04:09:30 10° N 04:15:55 70° E 04:22:14 10° SSE
Spot 2 4.3 04:13:03 10° N 04:16:52 40° WNW 04:16:54 40° WNW
NOSS 2-2 (E) 3.6 04:16:35 44° WNW 04:17:18 51° NW 04:21:43 10° NE
ADEOS 3.7 04:12:54 10° N 04:17:58 52° WNW 04:21:05 23° SW
COSMO-SKYMED 1 3.7 04:14:25 10° SE 04:18:32 45° ENE 04:22:42 10° N
Cosmos 1726 4.1 04:15:41 10° N 04:18:58 31° ENE 04:22:16 10° SE
CZ-2C R/B 2.6 04:13:53 10° NNE 04:19:08 80° ESE 04:24:18 10° SSW
COSMOS 2455 3.4 04:19:21 29° W 04:21:36 40° NW 04:27:17 10° NNE
Cosmos 1943 Rocket 4.1 04:19:28 10° NNW 04:24:18 27° NE 04:29:05 10° ESE
SL-16 R/B 4.0 04:21:06 10° SSE 04:26:05 33° ESE 04:31:07 10° NE
Cosmos 1726 Rocket 3.8 04:25:35 10° N 04:29:54 71° ENE 04:34:12 10° SSE
USA 32 4.0 04:24:47 10° SSW 04:29:57 58° W 04:35:09 10° N
Meteor 1-4 Rocket 3.0 04:26:50 10° S 04:30:17 59° E 04:33:44 10° NNE
ADEOS II 3.9 04:27:49 10° NNW 04:29:57 14° NW 04:29:57 14° NW
ARIANE 5 R/B 4.4 04:28:12 10° NNW 04:29:41 13° NW 04:29:41 13° NW
Cosmos 292 Rocket 4.2 04:28:30 10° NW 04:32:50 38° WSW 04:37:15 10° S
NOSS 0 Rocket 3.9 04:26:50 10° SSW 04:33:00 81° WNW 04:39:16 10° NNE
PSLV R/B 4.2 04:29:30 10° N 04:33:18 32° WNW 04:34:17 28° W
NOSS 3-2 (C) 4.3 04:26:41 10° NW 04:33:49 49° WSW 04:41:46 10° SSE
Cosmos 2228 3.0 04:29:32 10° N 04:33:50 82° E 04:38:05 10° SSE
Cosmos 2297 4.0 04:28:13 10° NNW 04:33:59 71° ENE 04:39:43 10° SE
Cosmos 2278 Rocket 2.5 04:29:01 10° NW 04:34:22 43° WSW 04:39:40 10° S
Cosmos 44 3.4 04:33:09 26° WNW 04:35:05 41° WSW 04:39:07 10° S
Cosmos 1025 Rocket 3.5 04:35:01 25° WSW 04:36:46 36° WNW 04:40:45 10° N
Okean O Rocket 3.8 04:33:42 10° NE 04:37:35 29° E 04:41:25 10° SSE
Cosmos 44 Rocket 3.7 04:33:10 10° NW 04:37:54 60° NE 04:42:30 10° SE
Cosmos 2333 Rocket 2.7 04:37:22 22° WSW 04:40:35 40° NW 04:45:58 10° NNE
Cosmos 2074 Rocket 4.0 04:35:05 10° SSW 04:41:15 61° WNW 04:47:25 10° N
Cosmos 921 Rocket 4.0 04:42:56 24° W 04:43:33 24° W 04:46:59 10° SSW
Aureole 1 Rocket 4.2 04:41:15 19° WSW 04:44:50 34° WNW 04:49:14 10° N
Cosmos 2058 Rocket 3.4 04:41:57 10° N 04:46:22 70° E 04:50:46 10° SSE
CZ-4B R/B 2.8 04:44:32 10° N 04:48:38 64° WNW 04:52:28 10° SSW
USA 234 4.2 04:44:36 10° S 04:49:59 27° SW 04:53:54 16° W
Cosmos 1954 Rocket 4.4 04:45:03 10° SSW 04:50:15 69° ESE 04:55:27 10° NNE
Cosmos 389 Rocket 2.6 04:49:05 10° SSW 04:52:25 48° WNW 04:55:47 10° N
NOSS 3-4 (A) 3.4 04:46:58 10° SW 04:53:02 87° NW 04:59:33 10° NE
NOSS 3-4 (C) 3.4 04:47:03 10° SW 04:53:07 87° NW 04:59:39 10° NE
NOSS 2-2 (D) 4.3 04:53:36 20° W 04:55:43 34° NNW 04:59:52 10° NNE
Cosmos 1437 Rocket 3.6 04:52:10 10° S 04:55:51 52° E 04:59:33 10° NNE
PSLV R/B 3.6 04:53:17 10° NNE 04:57:03 85° WNW 05:00:44 10° SSW
PAYLOAD A 4.3 04:55:21 10° N 04:59:49 39° WNW 05:04:23 10° SW
Cosmos 1140 Rocket 3.4 04:54:45 10° SSW 04:59:56 77° WNW 05:05:08 10° NNE
Cosmos 1953 2.9 04:57:41 10° NNW 05:01:24 35° W 05:05:04 10° SSW
SL-16 R/B 4.3 05:00:26 10° NW 05:01:49 11° NNW 05:03:11 10° N
IDEFIX/ARIANE 42P 3.7 04:59:53 10° N 05:03:59 24° WNW 05:07:55 11° WSW
Cosmos 614 Rocket 4.2 04:59:48 10° SW 05:04:53 51° WNW 05:09:59 10° NNE
MSX 4.4 04:59:50 10° N 05:04:59 36° WNW 05:10:08 10° SW
SKYMED 2 3.6 05:02:14 10° S 05:06:32 62° WSW 05:10:53 10° NNW
Cosmos 2219 Rocket 3.2 05:05:25 13° W 05:09:24 28° NW 05:14:11 10° NNE
ATLAS 3B R/B 3.1 05:04:05 10° NW 05:10:15 40° WSW 05:16:32 10° S
ASTEX 1 4.2 05:07:32 10° SSE 05:12:17 55° ENE 05:17:05 10° N
Helios 1A Rocket 3.3 05:08:33 10° NNE 05:12:44 73° ESE 05:16:53 10° S
Cosmos 1892 Rocket 3.5 05:11:14 10° SSW 05:15:38 65° WNW 05:20:03 10° N
Cosmos 1356 3.9 05:12:59 10° NNW 05:16:14 39° W 05:19:28 10° SSW
CZ-4B DEB 4.2 05:10:47 10° NNE 05:16:18 89° WNW 05:21:46 10° SSW
Meteor PRIRODA 4.0 05:12:46 10° N 05:16:21 43° WNW 05:19:55 10° SW
BREEZE-M DEB (TANK) 1.8 05:15:00 14° W 05:16:52 86° N 05:19:49 10° E
Cosmos 2237 Rocket 2.5 05:12:03 10° SW 05:17:33 49° NW 05:23:06 10° NNE
GP-B 3.3 05:15:51 10° SSW 05:20:09 49° W 05:24:29 10° NNW
PAYLOAD B 4.3 05:15:54 10° NNE 05:21:31 90° N 05:27:04 10° SSW
Cosmos 1908 3.1 05:18:07 10° NNW 05:21:58 76° W 05:25:47 10° S
CENTAUR R/B 3.7 05:15:24 10° NW 05:22:38 37° WSW 05:30:19 10° S
BREEZE-M DEB (TANK) 3.9 05:22:10 10° WSW 05:23:42 15° SSW 05:25:18 10° S
Meteor 1-31 Rocket 3.8 05:21:18 10° N 05:24:29 25° WNW 05:27:37 10° WSW
MOS 1-B 4.4 05:18:54 10° NNE 05:24:42 70° WNW 05:30:28 10° SSW
In-Cosmos 22 4.1 05:20:07 10° SSW 05:25:25 64° WNW 05:30:53 10° N
Cosmos 1606 Rocket 4.5 05:22:34 10° NNW 05:26:10 26° W 05:29:45 10° SW
RESURS DK-1 2.3 05:26:38 10° SSW 05:30:46 79° WNW 05:34:56 10° NNE
Cosmos 2369 Rocket 2.8 05:25:33 10° NNW 05:31:07 60° ENE 05:36:38 10° SE
COSMOS 2428 4.0 05:27:51 10° W 05:32:11 22° NW 05:36:31 10° N
Meteor 2-10 4.4 05:28:29 10° NNW 05:33:22 44° W 05:38:23 10° SSW
Gblst 52 Del rocket 4.4 05:28:17 10° WNW 05:33:48 66° SSW 05:39:47 10° SE
ATLAS 2AS CENTAUR R/B 3.4 05:26:24 10° WSW 05:34:13 51° NW 05:41:58 10° NE
SJ-12 4.0 05:30:14 10° N 05:34:15 56° WNW 05:38:15 10° SSW
Cosmos 1980 4.3 05:29:31 10° WSW 05:34:43 36° NW 05:39:57 10° NNE
NOAA 6 4.1 05:30:33 10° NNE 05:35:47 89° ESE 05:40:57 10° SSW
CZ-4B R/B 3.2 05:31:25 10° NNE 05:36:46 89° WNW 05:42:04 10° SSW
SeaSat 1 3.8 05:32:06 10° NE 05:36:52 46° ESE 05:41:36 10° S
